PROMETHEUS 2-3

Last updated on Wed Dec 03 2025 00:03:49 GMT+0000 (Coordinated Universal Time)

1 41855U 16067H 25336.15625593 .04010410 28433-5 17801-2 0 9992 2 41855 98.0121 213.0182 0002762 134.4903 225.6612 16.22345210497835

Satellite not in orbit

PROMETHEUS 2-3